Regional Weather Roundup
Issued by NWS

Home | Current Version | Previous Version | Text Only | Print | Product List | Glossary Off
Versions: 1 2 3 4 5 6 7 8 9 10 11 12 13 14 15 16 17 18 19 20 21 22 23 24 25 26 27 28 29 30 31 32 33 34 35 36 37 38 39 40 41 42 43 44 45 46 47 48 49 50

000
ASUS43 KOAX 222110
RWRNE

WEATHER ROUNDUP FOR NEBRASKA
NATIONAL WEATHER SERVICE OMAHA NE
400 PM CDT FRI MAY 22 2015

NOTES: SATELLITE DATA IS BEING USED TO AUGMENT CLOUD COVER ABOVE
       12000 FEET.
       "FAIR" INDICATES FEW OR NO CLOUDS BELOW 12,000 FEET WITH NO
       SIGNIFICANT WEATHER AND/OR OBSTRUCTIONS TO VISIBILITY.

  * THESE STATIONS DO NOT REPORT WEATHER SUCH AS RAIN...SNOW OR FOG.

NEZ001>004-019>022-054>056-222200-
NEBRASKA PANHANDLE

CITY           SKY/WX    TMP DP  RH WIND       PRES   REMARKS
SCOTTSBLUFF    CLOUDY    50  45  83 SE18G25   30.06S
ALLIANCE       CLOUDY    50  44  80 SE22      30.07F
CHADRON        CLOUDY    52  42  69 SE21G30   30.08F
KIMBALL          N/A    N/A N/A N/A MISG        N/A
SIDNEY         LGT RAIN  49  47  93 E14       30.05F FOG
$$

NEZ057>060-069>072-079>082-222200-
SOUTHWEST NEBRASKA

CITY           SKY/WX    TMP DP  RH WIND       PRES   REMARKS
NORTH PLATTE   LGT RAIN  47  44  90 E18G25    30.14F
IMPERIAL       CLOUDY    49  47  93 SE21      30.07F
LEXINGTON      LGT RAIN  50  46  87 E13G18    30.16F
MCCOOK         CLOUDY    51  49  92 E17       30.10F FOG
OGALLALA       CLOUDY    49  46  90 E17G23    30.09F
$$

NEZ005>010-023>029-035>040-094-222200-
NORTH CENTRAL NEBRASKA

CITY           SKY/WX    TMP DP  RH WIND       PRES   REMARKS
VALENTINE      CLOUDY    51  41  68 S23G37    30.18R
AINSWORTH      LGT RAIN  49  45  85 S14       30.20S
BROKEN BOW     LGT RAIN  51  44  77 SE14      30.17F
O`NEILL        CLOUDY    55  42  60 S21G31    30.23R
ORD            CLOUDY    53  44  71 SE8       30.20F
THEDFORD       LGT RAIN  50  44  81 SE20G30   30.16F
$$

NEZ041-046>049-061>064-073>077-083>087-222200-
SOUTH CENTRAL NEBRASKA

CITY           SKY/WX    TMP DP  RH WIND       PRES   REMARKS
GRAND ISLAND   CLOUDY    58  45  62 SE9       30.19F
AURORA         CLOUDY    61  43  52 SE13      30.19F
HASTINGS       CLOUDY    57  45  64 SE13      30.17F
HEBRON         CLOUDY    60  44  55 SE6       30.19F
HOLDREGE       LGT RAIN  50  48  92 E17       30.16S
KEARNEY *      CLOUDY    52  46  82 E10       30.19F
YORK           CLOUDY    59  46  63 SE9       30.20F
$$

NEZ011>018-030>034-042>045-222200-
NORTHEAST NEBRASKA

CITY           SKY/WX    TMP DP  RH WIND       PRES   REMARKS
NORFOLK        RAIN      54  46  74 S16G30    30.24R
ALBION         LGT RAIN  54  45  71 SE6       30.25S
BLAIR          LGT RAIN  58  46  65 SE8       30.25R
COLUMBUS *     CLOUDY    61  45  55 NE7       30.24F
FREMONT        CLOUDY    59  47  64 E9        30.24F
TEKAMAH        CLOUDY    67  44  43 S25       30.23R
WAYNE          CLOUDY    66  40  38 SW16      30.22F
$$

NEZ050>053-065>068-078-088>093-222200-
SOUTHEAST NEBRASKA

CITY           SKY/WX    TMP DP  RH WIND       PRES   REMARKS
LINCOLN        CLOUDY    64  45  49 SE10      30.21F
OMAHA EPPLEY   LGT RAIN  61  48  62 SW9       30.25R
BEATRICE       CLOUDY    64  44  49 SE14      30.20F
FALLS CITY     CLOUDY    66  49  54 SE6       30.22F
NEBRASKA CITY  CLOUDY    63  42  44 SE6       30.23F
PLATTSMOUTH    CLOUDY    64  45  50 SE7       30.23F
$$

NEZ044-045-051>053-067-222200-
OMAHA AREA

CITY           SKY/WX    TMP DP  RH WIND       PRES   REMARKS
OMAHA EPPLEY   LGT RAIN  61  48  62 SW9       30.25R
BLAIR          LGT RAIN  58  46  65 SE8       30.25R
FREMONT        CLOUDY    59  47  64 E9        30.24F
MILLARD        CLOUDY    63  49  60 CALM      30.22F
OFFUTT AFB     CLOUDY    62  51  65 NE7       30.22F
PLATTSMOUTH    CLOUDY    64  45  50 SE7       30.23F
WAHOO          MOCLDY    63  47  55 E8        30.22F
$$



USA.gov is the U.S. government's official web portal to all federal, state and local government web resources and services.